This demonstration page uses our WeatherBlox Daily Observations layout. Learn more.

39.92423, -83.80882

Hourly Observations for May 21, 2016

Temp ( °F °C ) Dew Point ( °F °C ) Humidity (%) Winds ( mph kmh ) Pressure ( in mb ) Visibility ( mi km ) Precip ( " mm )
12:18 am 00:18 Cloudy with Light Rain 57 14 57 14 100 100 NE 8 13 30.03 1017 2.5 4.02335 0.01 0.254
12:31 am 00:31 Cloudy with Rain 57 14 57 14 100 100 ENE 8 13 30.03 1017 1.5 2.41401 0.05 1.27
12:43 am 00:43 Cloudy with Rain 57 14 57 14 100 100 NE 8 13 30.03 1017 1.75 2.816345 0.08 2.032
12:56 am 00:56 Cloudy with Rain 58 14.4 58 14.4 100 100 NE 9 15 30 1016 1.25 2.011675 0.11 2.794
1:14 am 01:14 Cloudy with Rain 57 14 57 14 100 100 NE 10 17 30 1016 1.5 2.41401 0.05 1.27
1:25 am 01:25 Cloudy with Rain 57 14 57 14 100 100 NE 9 15 30 1016 1.5 2.41401 0.09 2.286
1:47 am 01:47 Cloudy with Rain 55 13 55 13 100 100 NNE 9 15 30 1016 2 3.21868 0.16 4.064
1:56 am 01:56 Cloudy with Light Rain 56 13.3 56 13.3 100 100 NE 9 15 29.99 1016 2.5 4.02335 0.17 4.318
2:05 am 02:05 Cloudy with Light Rain 55 13 55 13 100 100 NE 9 15 30 1016 3 4.82802 0.01 0.254
2:18 am 02:18 Cloudy with Rain 55 13 55 13 100 100 NE 9 15 30 1016 2 3.21868 0.02 0.508
2:36 am 02:36 Cloudy with Light Rain 55 13 55 13 100 100 NE 12 19 30 1016 3 4.82802 0.03 0.762
2:56 am 02:56 Cloudy with Mist and Fog 56 13.3 56 13.3 100 100 NNE 10 17 29.97 1015 6 9.65604 0.03 0.762
3:56 am 03:56 Cloudy with Light Rain 56 13.3 56 13.3 100 100 NE 12 19 29.96 1014 10 16.0934 0 0.0254
4:56 am 04:56 Cloudy 56 13.3 56 13.3 100 100 NNE 12 19 29.96 1015 9 14.48406 0 0.0254
5:56 am 05:56 Cloudy 56 13.3 56 13.3 100 100 NNE 10 17 29.96 1014 10 16.0934 0 0
6:56 am 06:56 Cloudy with Light Rain 56 13.3 56 13.3 100 100 NNE 10 17 29.96 1015 5 8.0467 0 0.0254
7:10 am 07:10 Cloudy with Rain 55 13 55 13 100 100 NNE 10 17 29.97 1015 2 3.21868 0.03 0.762
7:24 am 07:24 Cloudy with Light Rain 55 13 55 13 100 100 NNW 9 15 29.97 1015 4 6.43736 0.04 1.016
7:41 am 07:41 Cloudy 55 13 55 13 100 100 NNW 7 11 30 1016 9 14.48406 0.04 1.016
7:56 am 07:56 Cloudy 56 13.3 56 13.3 100 100 NNW 7 11 29.98 1015 10 16.0934 0.04 1.016
8:42 am 08:42 Cloudy 55 13 55 13 100 100 NNW 8 13 30 1016 7 11.26538 0 0
8:56 am 08:56 Cloudy with Light Rain 56 13.3 56 13.3 100 100 NNW 7 11 29.99 1016 6 9.65604 0 0.0254
9:56 am 09:56 Cloudy 57 13.8 57 13.8 100 100 N 13 20 29.99 1016 10 16.0934 0 0.0254
10:56 am 10:56 Cloudy 58 14.4 56 13.3 93 93 N 13 20 29.99 1016 10 16.0934 0 0
11:56 am 11:56 Cloudy 58 14.4 56 13.3 93 93 N 10 17 30 1016 10 16.0934 0 0
12:56 pm 12:56 Cloudy 58 14.4 56 13.3 93 93 N 10 17 30 1016 10 16.0934 0 0
1:26 pm 13:26 Cloudy 57 14 55 13 94 94 NNW 13 20 30 1016 10 16.0934 0 0
1:56 pm 13:56 Cloudy 59 15 56 13.3 90 90 N 12 19 29.99 1016 10 16.0934 0 0
2:13 pm 14:13 Cloudy 61 16 57 14 88 88 NNE 10 17 30 1016 10 16.0934 0 0
2:56 pm 14:56 Cloudy 60 15.5 54 12.2 81 81 N 17 28 30 1016 10 16.0934 0 0
3:27 pm 15:27 Cloudy 61 16 52 11 72 72 N 16 26 30.03 1017 10 16.0934 0 0
3:56 pm 15:56 Cloudy 60 15.5 53 11.6 78 78 N 10 17 30.01 1016 10 16.0934 0 0
4:56 pm 16:56 Cloudy 62 16.6 55 12.7 78 78 WNW 5 7 30.01 1016 10 16.0934 0 0
5:56 pm 17:56 Mostly Cloudy 65 18.3 51 10.5 61 61 N 13 20 30.01 1016 10 16.0934 0 0
6:56 pm 18:56 Mostly Cloudy 65 18.3 52 11.1 63 63 NNE 9 15 30 1016 10 16.0934 0 0
7:56 pm 19:56 Mostly Sunny 64 17.7 49 9.4 58 58 N 10 17 30.01 1016 10 16.0934 0 0
8:56 pm 20:56 Mostly Cloudy 60 15.5 49 9.4 67 67 NNE 5 7 30.02 1017 10 16.0934 0 0
9:56 pm 21:56 Clear 56 13.3 50 10 81 81 NW 6 9 30.03 1017 10 16.0934 0 0
10:56 pm 22:56 Clear 52 11.1 49 9.4 89 89 WNW 5 7 30.04 1017 10 16.0934 0 0
11:56 pm 23:56 Clear 53 11.6 49 9.4 86 86 W 7 11 30.02 1017 10 16.0934 0 0

Powered by AerisWeather